VHHGB YMEN-YCEM

Flight info

Callsign VHHGB
Flight time 0h 16m
Altitude 3500
Route VFR
Aircraft PA28/L-V/N

Departure

Time 2026-04-26 06:08
Airport Melbourne Essendon Airport (YMEN)

Arrival

Time 2026-04-26 06:25
Airport Coldstream Airport (YCEM)
Time Latitude Longitude Altitude Speed Heading
2026-04-26 05:57 -37.72859 144.89595 263 ft 0 kts 279°
2026-04-26 06:00 -37.72866 144.89579 263 ft 7 kts 229°
2026-04-26 06:00 -37.72909 144.89608 263 ft 10 kts 109°
2026-04-26 06:01 -37.72913 144.89627 263 ft 11 kts 100°
2026-04-26 06:01 -37.72916 144.89648 263 ft 11 kts 96°
2026-04-26 06:01 -37.72927 144.89762 263 ft 15 kts 97°
2026-04-26 06:01 -37.72943 144.89909 263 ft 19 kts 101°
2026-04-26 06:02 -37.72975 144.90001 262 ft 14 kts 173°
2026-04-26 06:02 -37.73111 144.90009 254 ft 24 kts 178°
2026-04-26 06:02 -37.73294 144.90015 252 ft 29 kts 180°
2026-04-26 06:02 -37.73373 144.90045 246 ft 0 kts 112°
2026-04-26 06:07 -37.73374 144.90049 246 ft 3 kts 104°
2026-04-26 06:07 -37.73375 144.90132 245 ft 12 kts 38°
2026-04-26 06:07 -37.73307 144.90139 249 ft 14 kts 357°
2026-04-26 06:07 -37.73043 144.90128 255 ft 60 kts 359°
2026-04-26 06:08 -37.72556 144.90106 366 ft 77 kts
2026-04-26 06:08 -37.72007 144.90092 588 ft 79 kts
2026-04-26 06:08 -37.71472 144.90104 837 ft 78 kts
2026-04-26 06:08 -37.70982 144.90344 1100 ft 82 kts 41°
2026-04-26 06:09 -37.70876 144.91119 1320 ft 100 kts 93°
2026-04-26 06:09 -37.71043 144.92001 1464 ft 104 kts 99°
2026-04-26 06:09 -37.71259 144.92871 1620 ft 104 kts 102°
2026-04-26 06:09 -37.71504 144.93735 1755 ft 105 kts 103°
2026-04-26 06:10 -37.71697 144.94619 1895 ft 103 kts 95°
2026-04-26 06:10 -37.71854 144.95501 2012 ft 104 kts 96°
2026-04-26 06:10 -37.71997 144.96388 2137 ft 104 kts 94°
2026-04-26 06:10 -37.72111 144.97295 2280 ft 106 kts 96°
2026-04-26 06:11 -37.72283 144.98233 2388 ft 110 kts 96°
2026-04-26 06:11 -37.72418 144.99191 2534 ft 114 kts 96°
2026-04-26 06:11 -37.72597 145.00188 2636 ft 116 kts 100°
2026-04-26 06:11 -37.72790 145.01199 2669 ft 120 kts 102°
2026-04-26 06:12 -37.72951 145.02244 2682 ft 121 kts 97°
2026-04-26 06:12 -37.73064 145.03299 2696 ft 122 kts 94°
2026-04-26 06:12 -37.73083 145.04362 2663 ft 119 kts 82°
2026-04-26 06:12 -37.73094 145.05413 2662 ft 120 kts 85°
2026-04-26 06:13 -37.73095 145.06466 2648 ft 119 kts 84°
2026-04-26 06:13 -37.73130 145.07522 2666 ft 122 kts 87°
2026-04-26 06:13 -37.73154 145.08582 2683 ft 120 kts 85°
2026-04-26 06:13 -37.73126 145.09651 2623 ft 124 kts 84°
2026-04-26 06:14 -37.73163 145.10729 2581 ft 122 kts 88°
2026-04-26 06:14 -37.73218 145.11801 2576 ft 120 kts 88°
2026-04-26 06:14 -37.73268 145.12843 2527 ft 117 kts 87°
2026-04-26 06:14 -37.73342 145.13875 2412 ft 121 kts 93°
2026-04-26 06:15 -37.73497 145.14931 2333 ft 121 kts 96°
2026-04-26 06:15 -37.73693 145.15989 2151 ft 128 kts 98°
2026-04-26 06:15 -37.73910 145.17065 2056 ft 125 kts 99°
2026-04-26 06:15 -37.74096 145.18139 1964 ft 124 kts 95°
2026-04-26 06:16 -37.74234 145.19197 1928 ft 120 kts 95°
2026-04-26 06:16 -37.74395 145.20229 1865 ft 119 kts 97°
2026-04-26 06:16 -37.74545 145.21245 1856 ft 115 kts 96°
2026-04-26 06:16 -37.74681 145.22238 1821 ft 113 kts 93°
2026-04-26 06:17 -37.74767 145.23241 1713 ft 115 kts 91°
2026-04-26 06:17 -37.74832 145.24237 1618 ft 114 kts 91°
2026-04-26 06:17 -37.74892 145.25212 1598 ft 111 kts 89°
2026-04-26 06:17 -37.74933 145.26188 1506 ft 115 kts 87°
2026-04-26 06:18 -37.74969 145.27196 1532 ft 113 kts 88°
2026-04-26 06:18 -37.75005 145.28175 1461 ft 114 kts 88°
2026-04-26 06:18 -37.75012 145.29183 1410 ft 115 kts 84°
2026-04-26 06:18 -37.75005 145.30171 1368 ft 111 kts 87°
2026-04-26 06:19 -37.75032 145.31165 1281 ft 114 kts 88°
2026-04-26 06:19 -37.75038 145.32132 1296 ft 105 kts 85°
2026-04-26 06:19 -37.75075 145.33071 1149 ft 109 kts 93°
2026-04-26 06:19 -37.75137 145.33688 1125 ft 106 kts 92°
2026-04-26 06:20 -37.75163 145.34907 1114 ft 101 kts 79°
2026-04-26 06:20 -37.75091 145.35775 1147 ft 98 kts 77°
2026-04-26 06:20 -37.75020 145.36338 1137 ft 99 kts 73°
2026-04-26 06:20 -37.74802 145.37474 1217 ft 100 kts 70°
2026-04-26 06:21 -37.74694 145.38041 1225 ft 100 kts 70°
2026-04-26 06:21 -37.74538 145.39226 1239 ft 104 kts 77°
2026-04-26 06:21 -37.74444 145.40099 1201 ft 99 kts 75°
2026-04-26 06:21 -37.74381 145.40942 1187 ft 90 kts 76°
2026-04-26 06:22 -37.74319 145.41465 1112 ft 88 kts 76°
2026-04-26 06:22 -37.74141 145.42160 1073 ft 78 kts 51°
2026-04-26 06:22 -37.73663 145.42455 965 ft 79 kts
2026-04-26 06:22 -37.73148 145.42502 917 ft 71 kts
2026-04-26 06:23 -37.72657 145.42441 816 ft 73 kts 353°
2026-04-26 06:23 -37.72167 145.42395 788 ft 73 kts 356°
2026-04-26 06:23 -37.71659 145.42366 722 ft 73 kts
2026-04-26 06:23 -37.71157 145.42270 673 ft 79 kts 330°
2026-04-26 06:24 -37.70988 145.41580 609 ft 93 kts 269°
2026-04-26 06:24 -37.71178 145.40814 562 ft 96 kts 231°
2026-04-26 06:24 -37.71772 145.40686 515 ft 93 kts 163°
2026-04-26 06:24 -37.72395 145.40782 330 ft 84 kts 183°
2026-04-26 06:25 -37.72887 145.40839 278 ft 59 kts 177°
2026-04-26 06:25 -37.73206 145.40868 291 ft 26 kts 177°
2026-04-26 06:25 -37.73248 145.40909 290 ft 7 kts 31°
2026-04-26 06:25 -37.73193 145.40917 289 ft 10 kts 356°
2026-04-26 06:26 -37.73103 145.40907 291 ft 16 kts 355°
2026-04-26 06:26 -37.72966 145.40893 281 ft 23 kts 355°
2026-04-26 06:26 -37.72790 145.40874 280 ft 26 kts 355°
2026-04-26 06:26 -37.72620 145.40858 273 ft 23 kts 355°
2026-04-26 06:27 -37.72522 145.40849 270 ft 7 kts
2026-04-26 06:27 -37.72508 145.40863 273 ft 0 kts 91°